Regional Weather Roundup
Issued by NWS

Home | Current Version | Previous Version | Graphics & Text | Print | Product List | Glossary On
Versions: 1 2 3 4 5 6 7 8 9 10 11 12 13 14 15 16 17 18 19 20 21 22 23 24 25 26 27 28 29 30 31 32 33 34 35 36 37 38 39 40 41 42 43 44 45 46 47 48 49 50
000
ASUS43 KLOT 200412
RWRIL

ILLINOIS REGIONAL WEATHER ROUNDUP
NATIONAL WEATHER SERVICE CHICAGO/ROMEOVILLE IL
1000 PM CST SUN FEB 19 2017

NOTE: "FAIR" INDICATES FEW OR NO CLOUDS BELOW 12,000 FEET WITH NO
SIGNIFICANT WEATHER AND/OR OBSTRUCTIONS TO VISIBILITY.

* THESE STATIONS ARE NOT UNDER NWS QUALITY CONTROL. THEY ALSO MAY NOT
  REPORT WEATHER SUCH AS PRECIPITATION OR FOG.

ILZ001-002-007-009-015-016-024-200500-
NORTHWEST ILLINOIS

CITY           SKY/WX    TMP DP  RH WIND       PRES   REMARKS
MOLINE         CLOUDY    57  44  62 SE10      30.02R
STERLING*      PTCLDY    48  42  80 E7        30.06R
SAVANNA*       CLOUDY    49  39  68 S7        30.04S
$$

ILZ003-004-008-010-011-017-018-200500-
NORTH CENTRAL ILLINOIS

CITY           SKY/WX    TMP DP  RH WIND       PRES   REMARKS
ROCKFORD       MOCLDY    50  40  68 SE8       30.09R
FREEPORT*      PTCLDY    41  34  76 SE7       30.08R
ROCHELLE*      CLOUDY    45  39  82 SE5       30.09R
DE KALB*       CLOUDY    51  43  73 SE9       30.09R
PERU*          CLOUDY    54  41  63 S12G18    30.08R
$$

ILZ005-006-012>014-019>023-200500-
NORTHEAST ILLINOIS

CITY           SKY/WX    TMP DP  RH WIND       PRES   REMARKS
CHICAGO-OHARE  MOCLDY    47  29  49 CALM      30.09R
CHICAGO-MIDWAY CLOUDY    49  31  49 E6        30.09S
AURORA         CLOUDY    48  41  76 SE6       30.09R
LANSING*       CLOUDY    46  41  83 CALM      30.11S
JOLIET*        PTCLDY    53  44  72 S3        30.10R
WAUKEGAN       CLOUDY    34  30  85 E5        30.10R WCI  30
DUPAGE AIRPORT CLOUDY    47  36  65 SE3       30.08R
KANKAKEE*      CLOUDY    48  40  73 CALM      30.11R
WHEELING       PTCLDY    41  31  67 CALM      30.11R
MORRIS*        CLOUDY    52  42  69 CALM      30.08R
ROMEOVILLE*    CLOUDY    49  44  84 SE7       30.09S
NORTHERLY ISL    N/A     42  31  65 CALM        N/A
$$

LMZ740>746-200500-
SOUTHERN LAKE MICHIGAN

STATION/POSITION SKY/WX   TEMP    WIND        PRES    VSBY  WAVE
                          AIR SEA DIR/SP/G                  HT/PER
                          (F)     (DEG/KT/KT) (MB)    (MI)  (FT/S)
HARRISON CRIB              45     140/  7/  8   N/A
BURNHAM HARBOR             43     110/  2/  3   N/A
CALUMET HARBOR             41      CALM  /  1 1018.9R
BURNS HARBOR               55     140/  6/  8 1020.3R
MICHIGAN CITY              52     110/  6/  7   N/A
$$

ILZ025>027-034>036-040-047-049-050-058-095>099-200500-
WEST-CENTRAL ILLINOIS

CITY           SKY/WX    TMP DP  RH WIND       PRES   REMARKS
QUINCY         PTCLDY    57  50  77 SE12      30.00F
GALESBURG*     PTCLDY    56  47  73 SE6       30.03S
MACOMB*        PTCLDY    53  47  80 SE9       30.05S
JACKSONVILLE*  MOCLDY    57  51  81 SE6       30.05F
PITTSFIELD*    MOCLDY    57  52  84 SE8       30.04F
$$

ILZ028>032-037-038-041>044-048-051>054-059>061-200500-
CENTRAL ILLINOIS

CITY           SKY/WX    TMP DP  RH WIND       PRES   REMARKS
PONTIAC        CLOUDY    51  47  86 S8        30.11R
BLOOMINGTON    PTCLDY    51  48  89 SE12      30.10R FOG
DECATUR        PTCLDY    48  46  93 SE6       30.10R FOG
PEORIA         PTCLDY    56  49  77 SE9       30.07R
LACON*         PTCLDY    52  44  73 CALM      30.06S
LINCOLN*       PTCLDY    51  49  94 S6        30.08S FOG
SPRINGFIELD    PTCLDY    56  50  80 SE12      30.07R HAZE
TAYLORVILLE    PTCLDY    50  49  95 SE10      30.09S FOG
$$

ILZ033-039-045-046-055>057-062-063-200500-
EAST-CENTRAL ILLINOIS

CITY           SKY/WX    TMP DP  RH WIND       PRES   REMARKS
CHAMPAIGN      PTCLDY    49  46  90 S8        30.12R FOG
RANTOUL*       CLOUDY    49  48  94 S6        30.12R FOG
MATTOON        FOG       49  49 100 S12       30.11R VSB 1/4
PARIS*         CLOUDY    45  45  99 S5        30.14R FOG
$$

ILZ079-100>102-200500-
SOUTHWEST ILLINOIS

CITY           SKY/WX    TMP DP  RH WIND       PRES   REMARKS
ALTON          CLEAR     54  50  87 SE9       30.08R
BELLEVILLE     MOCLDY    52  52 100 CALM      30.07F
CAHOKIA*       PTCLDY    57  50  77 SE8       30.06F
SPARTA*        CLEAR     52  49  90 E5        30.10F
$$

ILZ064>066-069>071-074>076-080>082-084>086-088>090-092>094-200500-
SOUTH-CENTRAL ILLINOIS

CITY           SKY/WX    TMP DP  RH WIND       PRES   REMARKS
CARBONDALE     FOG       49  49 100 SE3       30.11R VSB 1/4
CAIRO*         FOG       49  49 100 NE3       30.11S VSB<1/4
EFFINGHAM*     FOG       50  50 100 SE3       30.14S VSB 3/4
MARION         CLEAR     52  52 100 E3        30.12S
MT. VERNON     PTCLDY    48  48 100 E5        30.12F FOG
CENTRALIA*     PTCLDY    51  51  99 SE6       30.10F FOG
SALEM*         CLOUDY    53  51  94 SE8       30.12S FOG
METROPOLIS*    FOG       47  47 100 CALM      30.13R VSB<1/4
$$

ILZ067-068-072-073-078-083-087-091-200500-
SOUTHEAST ILLINOIS

CITY           SKY/WX    TMP DP  RH WIND       PRES   REMARKS
LAWRENCEVILLE  FOG       41  40  96 S3        30.15R VSB<1/4
FLORA*         CLOUDY    52  51  96 S5        30.14R FOG
FAIRFIELD*     FOG       46  46 100 CALM      30.13R VSB 1/4
HARRISBURG*    CLEAR     49  49 100 E5        30.13S FOG
ROBINSON*      FOG       37  37 100 CALM      30.16R VSB<1/4
CARMI*         FOG       42  42 100 E3        30.13S VSB<1/4
$$

ABBREVIATIONS USED IN REMARKS
   TC - TEMPERATURE IN CELSIUS
  WCI - WIND CHILL INDEX
   HX - HEAT INDEX
  VSB - VISIBILITY
$$




USA.gov is the U.S. government's official web portal to all federal, state and local government web resources and services.